Flag for U.S.A. Weather past 2 weeks in Vista, California, U.S.A.

Now
69 °F

Sunny.


Feels Like: 69 °F
Forecast: 52 / 79 °F
Wind: 8 mph from West

Location: McClellan-Palomar Airport

Current Time: Mar 28, 2015 at 3:39:55 PM

Latest Report: Mar 28, 2015 at 2:53 PM


Visibility: 10 mi

Pressure: 30.01 "Hg

Humidity: 68%

Dew point: 58 °F

Location of VistaLocation

Historic Weather in Vista — Graph

°F

Vista temperature yesterday

Maximum temperature yesterday: 81 °F (at 1:53 PM)
Minimum temperature yesterday: 60 °F (at 4:53 AM)
Average temperature yesterday: 69 °F

Past Weeks' High & Low Weather Summary

 TemperatureHumidityPressure
High92 °F (Mar 14, 11:53 AM)97% (Mar 21, 4:53 AM)30.18 "Hg (Mar 21, 4:53 AM)
Low54 °F (Mar 24, 6:53 AM)12% (Mar 15, 10:53 AM)29.87 "Hg (Mar 16, 5:53 PM)
Average67 °F58%30.02 "Hg
* Reported Mar 13 2:53 PM — Mar 28 2:53 PM, Vista, Weather by CustomWeather, © 2015

Note: Actual official high and low records may vary slightly from our data, if they occured in-between our weather recording intervals... More about our weather records

Advertising

Vista weather history for previous 24 hours

 ConditionsComfort  
Time TempWeatherWind HumidityBarometerVisibility
2:53 PM
Sat, Mar 28
69 °FSunny.8 mph68%30.01 "Hg10 mi
1:53 PM69 °FSunny.8 mph63%30.03 "Hg10 mi
12:53 PM69 °FSunny.7 mph66%30.05 "Hg10 mi
11:53 AM68 °FSunny.6 mph65%30.06 "Hg10 mi
10:53 AM67 °FSunny.9 mph71%30.06 "Hg7 mi
9:53 AM68 °FSunny.3 mph61%30.05 "Hg10 mi
8:53 AM63 °FSunny.No wind73%30.06 "Hg10 mi
8:03 AM56 °FFog.No wind97%30.06 "Hg1 mi
7:53 AM56 °FFog.3 mph97%30.04 "Hg0 mi
6:53 AM58 °FFog.No wind97%30.06 "Hg0 mi
5:53 AM57 °FFog.3 mph96%30.05 "Hg0 mi
4:53 AM58 °FFog.5 mph97%30.04 "Hg0 mi
3:53 AM59 °FFog.No wind93%30.03 "Hg1 mi
2:53 AM58 °FFog.No wind97%30.04 "Hg0 mi
1:58 AM61 °FFog.3 mph93%30.06 "Hg1 mi
12:53 AM61 °FFog.No wind97%30.06 "Hg2 mi
11:53 PM
Fri, Mar 27
62 °FFog.No wind93%30.06 "Hg1 mi
10:53 PM64 °FClear.No wind90%30.06 "Hg7 mi
9:53 PM65 °FClear.3 mph81%30.05 "Hg10 mi
8:53 PM66 °FClear.5 mph81%30.03 "Hg10 mi
7:53 PM67 °FSunny.3 mph76%30.01 "Hg10 mi
6:53 PM69 °FSunny.3 mph68%30.00 "Hg10 mi
5:53 PM73 °FSunny.No wind51%29.99 "Hg10 mi
4:53 PM73 °FSunny.7 mph50%30.00 "Hg10 mi
3:53 PM74 °FSunny.6 mph52%29.99 "Hg10 mi
Weather by CustomWeather, © 2015

See weather overviewHow to use our weather pages